Location: Newark
(33.6333°S, 78.8500°W)
Time: 00:11:24
(UTC+00:00)

Tiros 1 despin weight - Pass Details

Date: 28 September 2019
Orbit: 594 x 643 km, 48.2° (Epoch: 15 October)

Event Time Altitude Azimuth Distance (km) Brightness Sun altitude
Rises 00:24:20 0° 351° (N) 2,817 ? -15.1°
Reaches altitude 10° 00:27:19 10° 12° (NNE) 1,930 ? -15.7°
Enters shadow 00:28:23 14° 24° (NNE) 1,709 ? -15.9°
Maximum altitude 00:30:06 16° 51° (NE) 1,566 - -16.2°
Drops below altitude 10° 00:32:54 10° 90° (E) 1,959 - -16.8°
Sets 00:35:57 0° 110° (ESE) 2,881 - -17.4°
